Location: Alsip
(41.6689°N, 87.7387°W)
Time: 13:55:00
(UTC+00:00)

CENTAUR R/B - Pass Details

Date: 14 July 2020
Orbit: 760 x 1428 km, 63.5° (Epoch: 01 August)

Event Time Altitude Azimuth Distance (km) Brightness Sun altitude
Exits shadow 08:30:22 - 158° (SSE) 2,864 4.7 -17.5°
Reaches altitude 10° 08:31:50 10° 147° (SSE) 2,492 4.4 -17.3°
Maximum altitude 08:35:40 18° 105° (ESE) 2,077 4.5 -16.9°
Drops below altitude 10° 08:39:51 10° 64° (ENE) 2,772 5.9 -16.4°
Sets 08:43:28 0° 48° (NE) 3,864 7.4 -15.9°
